H1 CPF 2 NER 2025 9 25 9 268 01 glonass140 H2 1903001 9140 44299 2025 9 25 0 0 0 2025 9 28 23 45 0 900 1 1 0 0 0 1 H9 10 0 60943 0.00000 0 5916023.234 -9639981.777 22889366.861 10 0 60943 900.00000 0 8602895.994 -8915458.065 22324004.786 10 0 60943 1800.00000 0 11241030.854 -8406378.173 21326294.974 10 0 60943 2700.00000 0 13762493.488 -8109541.033 19915529.920 10 0 60943 3600.00000 0 16102292.458 -8009797.714 18118982.073 10 0 60943 4500.00000 0 18200873.101 -8080831.007 15971385.420 10 0 60943 5400.00000 0 20006398.617 -8286416.547 13514274.526 10 0 60943 6300.00000 0 21476724.540 -8582112.913 10795192.556 10 0 60943 7200.00000 0 22580984.955 -8917310.210 7866782.330 10 0 60943 8100.00000 0 23300724.528 -9237551.475 4785776.861 10 0 60943 9000.00000 0 23630528.939 -9487029.522 1611907.903 10 0 60943 9900.00000 0 23578126.890 -9611154.040 -1593246.950 10 0 60943 10800.00000 0 23163958.860 -9559080.386 -4767456.643 10 0 60943 11700.00000 0 22420230.041 -9286092.597 -7849045.401 10 0 60943 12600.00000 0 21389486.643 -8755738.899 -10778094.058 10 0 60943 13500.00000 0 20122774.946 -7941628.026 -13497610.170 10 0 60943 14400.00000 0 18677460.199 -6828808.712 -15954643.526 10 0 60943 15300.00000 0 17114797.059 -5414672.141 -18101324.615 10 0 60943 16200.00000 0 15497353.851 -3709337.174 -19895805.154 10 0 60943 17100.00000 0 13886399.221 -1735499.988 -21303081.718 10 0 60943 18000.00000 0 12339361.458 472247.593 -22295685.801 10 0 60943 18900.00000 0 10907467.619 2868604.289 -22854226.435 10 0 60943 19800.00000 0 9633662.033 5399201.929 -22967774.326 10 0 60943 20700.00000 0 8550891.867 8002636.849 -22634079.707 10 0 60943 21600.00000 0 7680831.858 10612806.027 -21859619.368 10 0 60943 22500.00000 0 7033101.606 13161450.876 -20659471.695 10 0 60943 23400.00000 0 6605007.983 15580802.639 -19057022.020 10 0 60943 24300.00000 0 6381822.722 17806218.882 -17083503.932 10 0 60943 25200.00000 0 6337582.601 19778700.849 -14777385.566 10 0 60943 26100.00000 0 6436377.258 21447186.252 -12183613.078 10 0 60943 27000.00000 0 6634068.885 22770521.605 -9352726.489 10 0 60943 27900.00000 0 6880369.691 23719031.733 -6339865.751 10 0 60943 28800.00000 0 7121187.715 24275621.162 -3203687.258 10 0 60943 29700.00000 0 7301140.296 24436362.070 -5212.846 10 0 60943 30600.00000 0 7366127.491 24210545.346 3193365.317 10 0 60943 31500.00000 0 7265855.449 23620194.026 6329899.716 10 0 60943 32400.00000 0 6956202.173 22699061.256 9343497.969 10 0 60943 33300.00000 0 6401325.187 21491156.455 12175704.785 10 0 60943 34200.00000 0 5575421.868 20048863.135 14771632.260 10 0 60943 35100.00000 0 4464068.255 18430728.532 17081016.860 10 0 60943 36000.00000 0 3065080.060 16699018.512 19059183.257 10 0 60943 36900.00000 0 1388859.867 14917140.443 20667897.317 10 0 60943 37800.00000 0 -541784.062 13147041.545 21876093.005 10 0 60943 38700.00000 0 -2692340.082 11446690.678 22660460.544 10 0 60943 39600.00000 0 -5017787.753 9867747.481 23005885.809 10 0 60943 40500.00000 0 -7464235.903 8453514.601 22905733.690 10 0 60943 41400.00000 0 -9970937.262 7237256.745 22361970.860 10 0 60943 42300.00000 0 -12472597.441 6240955.060 21385126.113 10 0 60943 43200.00000 0 -14901884.052 5474547.334 19994089.112 10 0 60943 44100.00000 0 -17192033.537 4935684.605 18215751.079 10 0 60943 45000.00000 0 -19279449.011 4610013.563 16084493.618 10 0 60943 45900.00000 0 -21106182.583 4471972.549 13641534.502 10 0 60943 46800.00000 0 -22622199.912 4486067.720 10934141.826 10 0 60943 47700.00000 0 -23787333.315 4608576.045 8014730.462 10 0 60943 48600.00000 0 -24572842.171 4789603.829 4939857.128 10 0 60943 49500.00000 0 -24962515.241 4975414.434 1769132.516 10 0 60943 50400.00000 0 -24953268.260 5110927.186 -1435929.090 10 0 60943 51300.00000 0 -24555211.010 5142281.916 -4613100.773 10 0 60943 52200.00000 0 -23791180.178 5019360.324 -7700651.486 10 0 60943 53100.00000 0 -22695756.716 4698156.782 -10638548.305 10 0 60943 54000.00000 0 -21313808.207 4142897.131 -13369628.627 10 0 60943 54900.00000 0 -19698616.831 3327814.390 -15840718.886 10 0 60943 55800.00000 0 -17909671.207 2238504.526 -18003677.296 10 0 60943 56700.00000 0 -16010214.680 872803.097 -19816339.621 10 0 60943 57600.00000 0 -14064653.001 -758856.325 -21243348.934 10 0 60943 58500.00000 0 -12135930.387 -2633619.035 -22256852.580 10 0 60943 59400.00000 0 -10282984.273 -4716915.923 -22837052.304 10 0 60943 60300.00000 0 -8558385.733 -6963672.059 -22972596.393 10 0 60943 61200.00000 0 -7006264.673 -9319967.855 -22660805.848 10 0 60943 62100.00000 0 -5660606.822 -11725084.287 -21907729.871 10 0 60943 63000.00000 0 -4543993.700 -14113847.279 -20728029.366 10 0 60943 63900.00000 0 -3666838.018 -16419173.486 -19144690.526 10 0 60943 64800.00000 0 -3027145.833 -18574711.062 -17188574.058 10 0 60943 65700.00000 0 -2610814.409 -20517464.768 -14897808.841 10 0 60943 66600.00000 0 -2392451.929 -22190295.288 -12317042.120 10 0 60943 67500.00000 0 -2336682.949 -23544187.829 -9496561.249 10 0 60943 68400.00000 0 -2399882.801 -24540194.852 -6491304.709 10 0 60943 69300.00000 0 -2532265.916 -25150971.544 -3359782.539 10 0 60943 70200.00000 0 -2680238.016 -25361840.075 -162928.120 10 0 60943 71100.00000 0 -2788911.080 -25171338.678 3037095.342 10 0 60943 72000.00000 0 -2804673.269 -24591233.605 6178109.418 10 0 60943 72900.00000 0 -2677704.030 -23645994.761 9199131.741 10 0 60943 73800.00000 0 -2364327.264 -22371758.436 12041559.954 10 0 60943 74700.00000 0 -1829102.772 -20814822.093 14650305.089 10 0 60943 75600.00000 0 -1046567.605 -19029735.488 16974852.671 10 0 60943 76500.00000 0 -2554.055 -17077068.942 18970231.585 10 0 60943 77400.00000 0 1304970.960 -15020952.534 20597872.915 10 0 60943 78300.00000 0 2865580.241 -12926488.931 21826343.394 10 0 60943 79200.00000 0 4656588.081 -10857147.139 22631940.658 10 0 60943 80100.00000 0 6643771.347 -8872244.779 22999140.161 10 0 60943 81000.00000 0 8782580.491 -7024622.241 22920886.351 10 0 60943 81900.00000 0 11019791.019 -5358603.835 22398723.393 10 0 60943 82800.00000 0 13295528.020 -3908329.077 21442763.470 10 0 60943 83700.00000 0 15545581.087 -2696521.860 20071493.391 10 0 60943 84600.00000 0 17703915.043 -1733747.361 18311422.866 10 0 60943 85500.00000 0 19705273.632 -1018186.523 16196580.558 10 0 60944 0.00000 0 21487769.115 -535936.773 13767866.818 10 0 60944 900.00000 0 22995351.961 -261825.774 11072273.025 10 0 60944 1800.00000 0 24180056.035 -160704.554 8161984.722 10 0 60944 2700.00000 0 25003928.990 -189164.966 5093380.348 10 0 60944 3600.00000 0 25440564.581 -297610.105 1925947.170 10 0 60944 4500.00000 0 25476173.170 -432590.272 -1278866.543 10 0 60944 5400.00000 0 25110144.545 -539305.974 -4458840.997 10 0 60944 6300.00000 0 24355078.332 -564171.948 -7552193.017 10 0 60944 7200.00000 0 23236279.615 -457333.245 -10498779.124 10 0 60944 8100.00000 0 21790739.797 -175026.023 -13241269.709 10 0 60944 9000.00000 0 20065644.531 318318.042 -15726270.879 10 0 60944 9900.00000 0 18116470.584 1048314.249 -17905371.399 10 0 60944 10800.00000 0 16004750.976 2029290.302 -19736093.688 10 0 60944 11700.00000 0 13795601.796 3263432.891 -21182729.676 10 0 60944 12600.00000 0 11555114.309 4740453.395 -22217044.644 10 0 60944 13500.00000 0 9347721.618 6437788.615 -22818834.837 10 0 60944 14400.00000 0 7233650.248 8321329.860 -22976327.569 10 0 60944 15300.00000 0 5266563.447 10346651.215 -22686415.671 10 0 60944 16200.00000 0 3491494.797 12460686.612 -21954721.389 10 0 60944 17100.00000 0 1943158.475 14603786.209 -20795488.300 10 0 60944 18000.00000 0 644706.484 16712066.346 -19231303.128 10 0 60944 18900.00000 0 -393015.758 18719954.701 -17292652.859 10 0 60944 19800.00000 0 -1171685.299 20562823.906 -15017325.784 10 0 60944 20700.00000 0 -1705181.243 22179602.818 -12449668.429 10 0 60944 21600.00000 0 -2018743.176 23515255.574 -9639713.226 10 0 60944 22500.00000 0 -2147645.688 24523024.036 -6642194.550 10 0 60944 23400.00000 0 -2135446.861 25166339.268 -3515473.116 10 0 60944 24300.00000 0 -2031886.650 25420321.802 -320390.630 10 0 60944 25200.00000 0 -1890525.850 25272808.029 2880922.041 10 0 60944 26100.00000 0 -1766227.147 24724860.228 6026258.987 10 0 60944 27000.00000 0 -1712586.144 23790739.754 9054551.266 10 0 60944 27900.00000 0 -1779421.957 22497345.645 11907052.754 10 0 60944 28800.00000 0 -2010434.033 20883143.346 14528476.546 10 0 60944 29700.00000 0 -2441124.311 18996629.565 16868060.119 10 0 60944 30600.00000 0 -3097072.290 16894398.314 18880539.209 10 0 60944 31500.00000 0 -3992635.358 14638889.487 20527012.470 10 0 60944 32400.00000 0 -5130128.724 12295913.925 21775681.441 10 0 60944 33300.00000 0 -6499519.175 9932057.644 22602452.860 10 0 60944 34200.00000 0 -8078645.504 7612072.349 22991393.073 10 0 60944 35100.00000 0 -9833956.764 5396359.362 22935026.956 10 0 60944 36000.00000 0 -11721738.246 3338649.881 22434476.567 10 0 60944 36900.00000 0 -13689775.076 1483976.169 21499437.363 10 0 60944 37800.00000 0 -15679385.485 -132983.823 20147992.624 10 0 60944 38700.00000 0 -17627740.552 -1489121.240 18406269.327 10 0 60944 39600.00000 0 -19470375.313 -2573621.316 16307941.425 10 0 60944 40500.00000 0 -21143788.047 -3388169.442 13893589.112 10 0 60944 41400.00000 0 -22588020.498 -3946630.429 11209925.232 10 0 60944 42300.00000 0 -23749112.140 -4274214.769 8308902.544 10 0 60944 43200.00000 0 -24581326.273 -4406166.972 5246717.931 10 0 60944 44100.00000 0 -25049054.722 -4386031.053 2082731.786 10 0 60944 45000.00000 0 -25128320.785 -4263566.075 -1121677.134 10 0 60944 45900.00000 0 -24807816.493 -4092399.594 -4304299.652 10 0 60944 46800.00000 0 -24089429.434 -3927518.227 -7403303.899 10 0 60944 47700.00000 0 -22988235.657 -3822701.744 -10358439.161 10 0 60944 48600.00000 0 -21531957.548 -3828009.884 -13112211.974 10 0 60944 49500.00000 0 -19759908.099 -3987429.162 -15611011.027 10 0 60944 50400.00000 0 -17721464.751 -4336780.430 -17806158.232 10 0 60944 51300.00000 0 -15474135.895 -4901977.148 -19654864.844 10 0 60944 52200.00000 0 -13081300.393 -5697709.575 -21121073.329 10 0 60944 53100.00000 0 -10609714.407 -6726612.142 -22176168.010 10 0 60944 54000.00000 0 -8126889.619 -7978950.826 -22799540.135 10 0 60944 54900.00000 0 -5698452.421 -9432845.317 -22978995.947 10 0 60944 55800.00000 0 -3385594.454 -11055018.045 -22710999.419 10 0 60944 56700.00000 0 -1242720.994 -12802039.754 -22000744.666 10 0 60944 57600.00000 0 684604.683 -14622020.172 -20862056.319 10 0 60944 58500.00000 0 2361335.342 -16456673.267 -19317119.673 10 0 60944 59400.00000 0 3764162.793 -18243670.578 -17396045.758 10 0 60944 60300.00000 0 4882239.560 -19919183.701 -15136279.853 10 0 60944 61200.00000 0 5717370.156 -21420508.763 -12581865.207 10 0 60944 62100.00000 0 6283665.496 -22688662.148 -9782576.706 10 0 60944 63000.00000 0 6606676.808 -23670837.832 -6792941.973 10 0 60944 63900.00000 0 6722047.505 -24322622.555 -3671169.791 10 0 60944 64800.00000 0 6673741.969 -24609875.360 -478007.653 10 0 60944 65700.00000 0 6511928.099 -24510192.465 2724448.350 10 0 60944 66600.00000 0 6290604.941 -24013896.071 5873967.149 10 0 60944 67500.00000 0 6065077.296 -23124506.148 8909395.405 10 0 60944 68400.00000 0 5889385.283 -21858676.106 11771845.246 10 0 60944 69300.00000 0 5813798.264 -20245595.986 14405833.678 10 0 60944 70200.00000 0 5882479.317 -18325889.059 16760351.795 10 0 60944 71100.00000 0 6131418.754 -16150048.755 18789843.628 10 0 60944 72000.00000 0 6586723.460 -13776481.693 20455076.621 10 0 60944 72900.00000 0 7263333.522 -11269238.531 21723888.084 10 0 60944 73800.00000 0 8164219.649 -8695526.732 22571794.577 10 0 60944 74700.00000 0 9280094.675 -6123107.890 22982453.802 10 0 60944 75600.00000 0 10589651.230 -3617686.474 22947971.307 10 0 60944 76500.00000 0 12060315.936 -1240396.768 22469047.057 10 0 60944 77400.00000 0 13649489.272 954509.440 21554959.610 10 0 60944 78300.00000 0 15306220.408 2921680.343 20223388.370 10 0 60944 79200.00000 0 16973248.351 4626304.780 18500077.058 10 0 60944 80100.00000 0 18589325.640 6045309.403 16418344.212 10 0 60944 81000.00000 0 20091728.959 7168063.826 14018449.197 10 0 60944 81900.00000 0 21418853.002 7996565.290 11346824.745 10 0 60944 82800.00000 0 22512780.059 8545095.670 8455189.642 10 0 60944 83700.00000 0 23321718.262 8839365.539 5399557.519 10 0 60944 84600.00000 0 23802206.390 8915181.225 2239159.928 10 0 60944 85500.00000 0 23920992.298 8816690.870 -964696.150 10 0 60945 0.00000 0 23656505.312 8594283.307 -4149814.348 10 0 60945 900.00000 0 22999859.253 8302228.278 -7254317.321 10 0 60945 1800.00000 0 21955342.929 7996158.181 -10217849.542 10 0 60945 2700.00000 0 20540375.355 7730497.786 -12982756.399 10 0 60945 3600.00000 0 18784926.234 7555951.612 -15495211.796 10 0 60945 4500.00000 0 16730424.427 7517156.024 -17706273.306 10 0 60945 5400.00000 0 14428198.904 7650596.557 -19572843.378 10 0 60945 6300.00000 0 11937516.398 7982879.764 -21058517.227 10 0 60945 7200.00000 0 9323297.171 8529434.060 -22134300.259 10 0 60945 8100.00000 0 6653603.888 9293695.804 -22779180.573 10 0 60945 9000.00000 0 3997008.188 10266816.364 -22980544.940 10 0 60945 9900.00000 0 1419944.820 11427903.762 -22734429.794 10 0 60945 10800.00000 0 -1015836.328 12744789.777 -22045602.045 10 0 60945 11700.00000 0 -3255614.077 14175291.027 -20927467.886 10 0 60945 12600.00000 0 -5253738.027 15668911.458 -19401811.197 10 0 60945 13500.00000 0 -6975283.995 17168914.813 -17498366.567 10 0 60945 14400.00000 0 -8397254.292 18614679.773 -15254235.276 10 0 60945 15300.00000 0 -9509273.617 19944238.285 -12713155.838 10 0 60945 16200.00000 0 -10313752.747 21096889.675 -9924643.715 10 0 60945 17100.00000 0 -10825514.838 22015779.825 -6943017.531 10 0 60945 18000.00000 0 -11070901.959 22650336.126 -3826331.583 10 0 60945 18900.00000 0 -11086401.603 22958455.113 -635236.353 10 0 60945 19800.00000 0 -10916853.198 22908350.285 2568209.824 10 0 60945 20700.00000 0 -10613312.383 22479982.227 5721753.811 10 0 60945 21600.00000 0 -10230665.022 21666011.039 8764161.034 10 0 60945 22500.00000 0 -9825093.225 20472231.446 11636405.039 10 0 60945 23400.00000 0 -9451501.412 18917472.947 14282809.860 10 0 60945 24300.00000 0 -9161011.636 17032969.813 16652123.218 10 0 60945 25200.00000 0 -8998633.889 14861227.926 18698500.310 10 0 60945 26100.00000 0 -9001209.262 12454436.191 20382380.032 10 0 60945 27000.00000 0 -9195711.950 9872488.855 21671237.888 10 0 60945 27900.00000 0 -9597980.746 7180700.749 22540202.383 10 0 60945 28800.00000 0 -10211932.632 4447309.725 22972524.346 10 0 60945 29700.00000 0 -11029290.942 1740868.795 22959891.354 10 0 60945 30600.00000 0 -12029839.316 -872365.324 22502582.185 10 0 60945 31500.00000 0 -13182191.035 -3330940.732 21609458.884 10 0 60945 32400.00000 0 -14445042.114 -5580513.755 20297796.820 10 0 60945 33300.00000 0 -15768856.749 -7575853.533 18592955.733 10 0 60945 34200.00000 0 -17097915.743 -9282466.210 16527897.466 10 0 60945 35100.00000 0 -18372643.535 -10677772.566 14142558.743 10 0 60945 36000.00000 0 -19532117.637 -11751791.185 11483089.892 10 0 60945 36900.00000 0 -20516656.340 -12507299.304 8600973.024 10 0 60945 37800.00000 0 -21270376.881 -12959465.073 5552035.488 10 0 60945 38700.00000 0 -21743616.914 -13134966.746 2395376.711 10 0 60945 39600.00000 0 -21895117.313 -13070635.751 -807771.551 10 0 60945 40500.00000 0 -21693873.810 -12811680.608 -3995229.865 10 0 60945 41400.00000 0 -21120578.432 -12409566.460 -7105077.858 10 0 60945 42300.00000 0 -20168588.559 -11919639.689 -10076859.353 10 0 60945 43200.00000 0 -18844381.140 -11398598.170 -12852762.093 10 0 60945 44100.00000 0 -17167471.086 -10901914.491 -15378748.527 10 0 60945 45000.00000 0 -15169795.489 -10481321.698 -17605614.958 10 0 60945 45900.00000 0 -12894587.819 -10182468.728 -19489957.728 10 0 60945 46800.00000 0 -10394787.832 -10042845.582 -20995027.009 10 0 60945 47700.00000 0 -7731052.605 -10090067.023 -22091450.927 10 0 60945 48600.00000 0 -4969450.991 -10340588.393 -22757815.427 10 0 60945 49500.00000 0 -2178937.177 -10798908.842 -22981088.160 10 0 60945 50400.00000 0 571291.538 -11457296.582 -22756877.734 10 0 60945 51300.00000 0 3214442.749 -12296048.607 -22089523.006 10 0 60945 52200.00000 0 5688672.426 -13284274.546 -20992010.382 10 0 60945 53100.00000 0 7939417.909 -14381172.009 -19485720.565 10 0 60945 54000.00000 0 9921423.295 -15537739.781 -17600009.598 10 0 60945 54900.00000 0 11600373.139 -16698856.484 -15371632.365 10 0 60945 55800.00000 0 12954066.851 -17805636.657 -12844020.012 10 0 60945 56700.00000 0 13973085.704 -18797964.253 -10066425.742 10 0 60945 57600.00000 0 14660925.924 -19617095.956 -7092956.195 10 0 60945 58500.00000 0 15033593.976 -20208223.650 -3981508.109 10 0 60945 59400.00000 0 15118683.035 -20522887.230 -792631.848 10 0 60945 60300.00000 0 14953971.642 -20521135.332 2411655.065 10 0 60945 61200.00000 0 14585605.708 -20173342.536 5569080.357 10 0 60945 62100.00000 0 14065942.494 -19461606.307 8618330.946 10 0 60945 63000.00000 0 13451149.218 -18380665.014 11500244.259 10 0 60945 63900.00000 0 12798658.850 -16938298.732 14158953.507 10 0 60945 64800.00000 0 12164591.211 -15155196.440 16542964.849 10 0 60945 65700.00000 0 11601248.314 -13064295.557 18606146.095 10 0 60945 66600.00000 0 11154789.241 -10709621.744 20308608.687 10 0 60945 67500.00000 0 10863181.767 -8144677.417 21617467.063 10 0 60945 68400.00000 0 10754515.948 -5430445.752 22507462.081 10 0 60945 69300.00000 0 10845749.523 -2633092.546 22961437.795 10 0 60945 70200.00000 0 11141936.857 178539.765 22970663.634 10 0 60945 71100.00000 0 11635973.063 2935543.396 22534996.762 10 0 60945 72000.00000 0 12308863.708 5571555.258 21662882.074 10 0 60945 72900.00000 0 13130508.855 8025259.374 20371190.093 10 0 60945 73800.00000 0 14060969.087 10242679.809 18684895.600 10 0 60945 74700.00000 0 15052161.291 12179170.601 16636602.627 10 0 60945 75600.00000 0 16049914.159 13801021.538 14265923.992 10 0 60945 76500.00000 0 16996298.334 15086614.129 11618726.197 10 0 60945 77400.00000 0 17832134.389 16027080.316 8746253.077 10 0 60945 78300.00000 0 18499574.115 16626436.961 5704143.920 10 0 60945 79200.00000 0 18944647.032 16901190.589 2551364.055 10 0 60945 80100.00000 0 19119664.906 16879428.925 -650932.118 10 0 60945 81000.00000 0 18985382.486 16599437.176 -3840584.086 10 0 60945 81900.00000 0 18512822.458 16107897.115 -6955631.360 10 0 60945 82800.00000 0 17684686.417 15457744.764 -9935519.173 10 0 60945 83700.00000 0 16496290.628 14705777.021 -12722279.923 10 0 60945 84600.00000 0 14955985.241 13910108.441 -15261666.826 10 0 60945 85500.00000 0 13085037.355 13127585.985 -17504217.008 10 0 60946 0.00000 0 10916981.071 12411271.555 -19406222.531 10 0 60946 900.00000 0 8496458.789 11808098.962 -20930590.727 10 0 60946 1800.00000 0 5877603.716 11356806.024 -22047573.989 10 0 60946 2700.00000 0 3122026.149 11086228.619 -22735357.706 10 0 60946 3600.00000 0 296489.571 11014030.477 -22980491.817 10 0 60946 4500.00000 0 -2529628.161 11145922.598 -22778158.281 10 0 60946 5400.00000 0 -5286982.828 11475405.860 -22132268.743 10 0 60946 6300.00000 0 -7908910.868 11984048.073 -21055390.273 10 0 60946 7200.00000 0 -10333965.121 12642283.955 -19568500.402 10 0 60946 8100.00000 0 -12508233.662 13410704.201 -17700576.163 10 0 60946 9000.00000 0 -14387345.203 14241778.976 -15488025.131 10 0 60946 9900.00000 0 -15938077.707 15081942.482 -12973969.758 10 0 60946 10800.00000 0 -17139503.658 15873949.874 -10207399.316 10 0 60946 11700.00000 0 -17983625.124 16559406.065 -7242206.503 10 0 60946 12600.00000 0 -18475473.325 17081358.624 -4136128.304 10 0 60946 13500.00000 0 -18632670.282 17386844.299 -949612.593 10 0 60946 14400.00000 0 -18484472.870 17429280.763 2255366.448 10 0 60946 15300.00000 0 -18070341.584 17170601.958 5416520.081 10 0 60946 16200.00000 0 -17438096.262 16583046.542 8472459.489 10 0 60946 17100.00000 0 -16641738.310 15650523.895 11363888.845 10 0 60946 18000.00000 0 -15739032.650 14369500.253 14034753.452 10 0 60946 18900.00000 0 -14788952.261 12749367.933 16433320.805 10 0 60946 19800.00000 0 -13849093.408 10812282.400 18513174.167 10 0 60946 20700.00000 0 -12973170.248 8592474.184 20234100.222 10 0 60946 21600.00000 0 -12208693.602 6135064.363 21562854.830 10 0 60946 22500.00000 0 -11594930.446 3494432.690 22473793.415 10 0 60946 23400.00000 0 -11161228.586 732205.621 22949355.137 10 0 60946 24300.00000 0 -10925775.547 -2085053.169 22980392.773 10 0 60946 25200.00000 0 -10894842.544 -4888355.331 22566342.935 10 0 60946 26100.00000 0 -11062544.374 -7608900.861 21715233.976 10 0 60946 27000.00000 0 -11411124.746 -10180685.061 20443531.680 10 0 60946 27900.00000 0 -11911755.054 -12542993.234 18775825.490 10 0 60946 28800.00000 0 -12525813.386 -14642681.259 16744360.738 10 0 60946 29700.00000 0 -13206590.777 -16436148.895 14388424.974 10 0 60946 30600.00000 0 -13901353.947 -17890924.949 11753599.078 10 0 60946 31500.00000 0 -14553678.728 -18986799.090 8890886.419 10 0 60946 32400.00000 0 -15105956.838 -19716453.551 5855735.708 10 0 60946 33300.00000 0 -15501970.990 -20085568.451 2706975.387 10 0 60946 34200.00000 0 -15689430.097 -20112396.269 -494320.522 10 0 60946 35100.00000 0 -15622357.288 -19826822.974 -3686013.621 10 0 60946 36000.00000 0 -15263229.224 -19268954.886 -6806106.644 10 0 60946 36900.00000 0 -14584775.317 -18487290.538 -9793949.672 10 0 60946 37800.00000 0 -13571359.361 -17536554.315 -12591423.232 10 0 60946 38700.00000 0 -12219883.456 -16475283.175 -15144074.726 10 0 60946 39600.00000 0 -10540174.023 -15363268.339 -17402185.395 10 0 60946 40500.00000 0 -8554831.615 -14258960.229 -19321746.346 10 0 60946 41400.00000 0 -6298548.755 -13216946.547 -20865324.024 10 0 60946 42300.00000 0 -3816922.598 -12285610.438 -22002797.624 10 0 60946 43200.00000 0 -1164810.533 -11505068.030 -22711953.576 10 0 60946 44100.00000 0 1595703.781 -10905472.875 -22978925.118 10 0 60946 45000.00000 0 4397649.885 -10505759.194 -22798467.958 10 0 60946 45900.00000 0 7171718.497 -10312877.231 -22174066.379 10 0 60946 46800.00000 0 9848912.063 -10321553.086 -21117867.453 10 0 60946 47700.00000 0 12363187.479 -10514583.070 -19650444.414 10 0 60946 48600.00000 0 14653980.790 -10863649.888 -17800393.743 10 0 60946 49500.00000 0 16668508.591 -11330625.671 -15603773.754 10 0 60946 50400.00000 0 18363750.144 -11869306.069 -13103395.883 10 0 60946 51300.00000 0 19708027.731 -12427501.248 -10347982.771 10 0 60946 52200.00000 0 20682119.791 -12949394.303 -7391210.151 10 0 60946 53100.00000 0 21279861.177 -13378066.239 -4290651.957 10 0 60946 54000.00000 0 21508206.719 -13658079.607 -1106650.093 10 0 60946 54900.00000 0 21386757.050 -13738010.500 2098868.158 10 0 60946 55800.00000 0 20946768.499 -13572821.015 5263601.086 10 0 60946 56700.00000 0 20229690.567 -13125971.320 8326087.467 10 0 60946 57600.00000 0 19285294.397 -12371181.793 11226901.258 10 0 60946 58500.00000 0 18169472.544 -11293770.827 13909802.521 10 0 60946 59400.00000 0 16941803.819 -9891512.012 16322822.347 10 0 60946 60300.00000 0 15662986.289 -8174974.797 18419261.262 10 0 60946 61200.00000 0 14392246.451 -6167334.463 20158582.563 10 0 60946 62100.00000 0 13184832.962 -3903659.291 21507184.486 10 0 60946 63000.00000 0 12089699.175 -1429704.399 22439037.567 10 0 60946 63900.00000 0 11147470.405 1199738.076 22936176.241 10 0 60946 64800.00000 0 10388779.628 3922864.786 22989036.451 10 0 60946 65700.00000 0 9833039.822 6673180.116 22596633.750 10 0 60946 66600.00000 0 9487703.064 9382013.535 21766579.144 10 0 60946 67500.00000 0 9348036.323 11981132.714 20514932.616 10 0 60946 68400.00000 0 9397422.730 14405345.820 18865896.969 10 0 60946 69300.00000 0 9608175.427 16594986.697 16851357.340 10 0 60946 70200.00000 0 9942830.055 18498181.251 14510274.333 10 0 60946 71100.00000 0 10355862.055 20072802.038 11887941.366 10 0 60946 72000.00000 0 10795757.243 21288030.480 9035119.352 10 0 60946 72900.00000 0 11207349.196 22125462.018 6007064.277 10 0 60946 73800.00000 0 11534325.578 22579708.194 2862465.434 10 0 60946 74700.00000 0 11721797.945 22658470.188 -337685.891 10 0 60946 75600.00000 0 11718826.490 22382080.321 -3531275.827 10 0 60946 76500.00000 0 11480792.640 21782530.320 -6656272.731 10 0 60946 77400.00000 0 10971518.292 20902026.618 -9651933.859 10 0 60946 78300.00000 0 10165040.830 19791133.099 -12459990.070 10 0 60946 79200.00000 0 9046967.271 18506579.139 -15025785.016 10 0 60946 80100.00000 0 7615348.410 17108825.186 -17299345.937 10 0 60946 81000.00000 0 5881034.002 15659488.451 -19236364.566 10 0 60946 81900.00000 0 3867491.886 14218737.378 -20799068.385 10 0 60946 82800.00000 0 1610096.598 12842764.959 -21956964.632 10 0 60946 83700.00000 0 -845084.537 11581447.621 -22687442.063 10 0 60946 84600.00000 0 -3442958.552 10476288.604 -22976218.293 10 0 60946 85500.00000 0 -6121458.717 9558732.651 -22817623.620 99